www.pogodaiklimat.ru

Погода и климат >> Архив погоды >> Россия >> Ставропольский край >> Дивное


ПОГОДА в Дивном

  • Прогноз погоды в Дивном
  • Монитор погоды в Дивном

АРХИВ ПОГОДЫ в Дивном

Время (UTC), дата Ветер
(напр.,м/с)
 
Видим.   Явления Облачность Т
(С)
Тd
(С)
f
(%)
Тe
(С)
Тes
(С)
Комфортность P
(гПа)
Po
(гПа)
Тmin
(С)
Tmax
(С)
R
(мм)
R24
(мм)
S
(см)
18 13.07 СЗ 2 10 км 6/0
[Ac trans Ci sp]
+20.0 +14.1 69 +23 +23 комфорт 1010.2 1000.1
21 13.07 ЮЗ 1 4000 м дымка 3/0
[Ci fib]
+16.7 +13.8 83 +18 +18 1010.9 1000.7
00 14.07 З 2 4000 м дымка 4/0
[Ci fib]
+16.0 +11.8 76 +16 +16 1010.0 999.7
03 14.07 З 2 10 км 4/0
[Ac trans Ci sp]
+16.3 +11.7 74 +16 +18 1011.0 1000.7 +15.3
06 14.07 З 2 10 км 3/0
[Ci fib]
+22.1 +12.3 54 +25 +35 комфорт 1010.6 1000.5
09 14.07 З 2 10 км 6/3 1000 м
[Cu hum Ci fib]
+25.6 +10.8 39 +27 +38 жарко 1010.0 1000.1
12 14.07 СЗ 2 10 км ясно +27.4 +9.2 32 +28 +36 жарко 1009.1 999.2 +28.1
15 14.07 З 1 10 км ясно +26.1 +8.1 32 +26 +28 жарко 1008.8 998.8 +28.1
18 14.07 штиль 0 10 км ясно +19.5 +12.3 63 +21 +21 комфорт 1009.3 999.2
21 14.07 штиль 0 10 км 10/0
[Ac As]
+17.7 +12.7 73 +18 +18 1008.5 998.3
00 15.07 ЮВ 1 10 км 6/0
[Ac trans]
+16.7 +11.8 73 +18 +18 1007.9 997.6
03 15.07 Ю 1 10 км ясно +20.6 +10.5 52 +23 +25 комфорт 1007.9 997.8 +16.3
06 15.07 В 2 10 км ясно +26.2 +10.7 38 +27 +38 жарко 1007.1 997.2
09 15.07 В 3 10 км 6/4 1000 м
[Cu med, cong Ci sp]
+29.4 +8.1 26 +29 +37 жарко 1005.7 995.9
12 15.07 В 3 10 км 8/3 600 м
[Cb calv Ac trans Ci sp]
+30.4 +8.2 25 +30 +34 жарко 1004.3 994.6
15 15.07 В 2 10 км 10/4 600 м
[Cb calv Ac As]
+29.1 +8.2 27 +29 +29 жарко 1004.1 994.3 +31.3
18 15.07 ЮВ 3 10 км 10/3 600 м
[Cb calv Ac As]
+25.6 +8.9 35 +26 +26 жарко 1005.4 995.5
21 15.07 ЮВ 3 4000 м слаб. ливневой дождь 10/4 600 м
[Cb cap Ac As]
+22.6 +10.5 46 +24 +24 комфорт 1005.6 995.6
00 16.07 Ю 1
{13}
4000 м в посл. час ливневой дождь 10/3 600 м
[Cb calv Ac As]
+18.8 +15.1 79 +21 +21 комфорт 1006.5 996.4
03 16.07 СВ 1 2000 м дымка 10/3 600 м
[Cb calv Ac As]
+18.5 +17.7 95 +20 +21 1006.9 996.7 +18.4 2
06 16.07 В 1 10 км 6/6 1000 м
[Cb calv]
+21.8 +16.6 72 +26 +31 душно 1006.6 996.6
09 16.07 ЮВ 1 10 км 6/6 1000 м
[Cu med, cong]
+25.7 +15.7 54 +29 +37 душно 1006.1 996.2
12 16.07 С 2 10 км 3/3 1000 м
[Cu med, cong]
+28.2 +13.9 41 +30 +38 жарко 1004.9 995.1
15 16.07 СВ 1 10 км 8/4 600 м
[Cb calv Ac trans]
+27.5 +13.0 41 +29 +30 жарко 1004.9 995.1 +29.1
18 16.07 ЮЗ 1 10 км гроза без осадков 10/5 600 м
[Cb calv Ac As]
+20.5 +15.8 74 +25 +25 комфорт 1008.3 998.2
21 16.07 ЮЗ 2 10 км {гроза} 3/0
[Ci fib]
+19.9 +14.7 72 +23 +23 комфорт 1008.5 998.4
00 17.07 ЮЗ 3 4000 м дымка {гроза} 3/0
[Ci fib]
+18.3 +14.6 79 +19 +19 1008.9 998.8
03 17.07 ЮЗ 2 10 км ясно +18.9 +14.5 76 +21 +22 комфорт 1009.4 999.2 +17.6
06 17.07 З 3 10 км ясно +24.3 +15.0 56 +27 +36 жарко 1008.6 998.7
09 17.07 З 3 10 км 3/0
[Ci fib]
+29.2 +10.9 32 +30 +44 жарко 1007.7 997.9
12 17.07 З 3 10 км 3/3 1000 м
[Cu hum]
+31.1 +9.1 26 +30 +37 жарко 1006.6 996.9
15 17.07 С 3 10 км 3/3 1000 м
[Cu hum]
+29.0 +9.5 30 +29 +30 жарко 1006.7 996.9 +31.3
18 17.07 штиль 0 10 км ясно +22.3 +12.7 55 +25 +25 комфорт 1007.5 997.5
21 17.07 СВ 1 10 км ясно +20.0 +13.5 66 +23 +23 комфорт 1007.1 997.0
00 18.07 ЮВ 1 10 км 3/0
[Ci sp]
+19.1 +13.3 69 +21 +21 комфорт 1006.9 996.8
03 18.07 штиль 0 10 км 8/3 1000 м
[Cu med, cong Ac trans]
+21.6 +14.2 63 +25 +25 комфорт 1007.8 997.8 +18.2
06 18.07 В 3 10 км 10/0
[Ac As]
+26.5 +12.5 42 +28 +31 жарко 1007.5 997.6
09 18.07 В 2 10 км 10/0
[Ac As]
+30.2 +8.4 26 +30 +35 жарко 1007.1 997.3
12 18.07 ЮВ 1 10 км 10/3 600 м
[Cb calv Ac As]
+30.0 +9.3 28 +30 +33 жарко 1006.9 997.1
15 18.07 С 3 4000 м слаб. ливневой дождь {гроза} 10/5 600 м
[Cb cap Ac As]
+21.7 +18.6 83 +27 +27 душно 1008.2 998.2 +31.1 3
18 18.07 СЗ 3 2000 м в посл. час гроза {ливн. осадки} 3/0
[Ac trans]
+19.6 +19.0 96 +23 +23 комфорт 1010.1 999.9
21 18.07 СЗ 2 4000 м дымка 10/3 600 м
[Cb calv Ac As]
+18.9 +16.9 88 +21 +21 комфорт 1010.9 1000.8
00 19.07 СЗ 1 2000 м дымка 10/3 600 м
[Cb calv Ac As]
+18.5 +17.8 96 +20 +20 1012.4 1002.2
03 19.07 СЗ 2 1000 м гроза без осадков {ливн. осадки} 9/3 600 м
[Cb calv Ac As]
+18.2 +18.2 100 +19 +19 1012.8 1002.6 +18.0 4
06 19.07 СЗ 2 4000 м дымка {гроза, ливн. осадки} 8/3 600 м
[Cb calv Ac trans]
+21.9 +17.9 78 +27 +31 душно 1013.8 1003.7
09 19.07 СЗ 3 10 км 8/3 1000 м
[Cu med, cong Ac trans]
+25.9 +17.8 61 +30 +36 душно 1013.7 1003.8
12 19.07 СЗ 2 10 км 3/3 1000 м
[Cu med, cong]
+28.4 +16.5 48 +32 +40 душно 1013.0 1003.1
15 19.07 С 2 10 км 10/0
[Ac As]
+27.5 +15.8 49 +31 +31 душно 1013.2 1003.3 +28.9 0.3
18 19.07 Ю 2 2000 м слаб. ливневой дождь 10/5 600 м
[Cb cap Ac As]
+21.3 +20.1 93 +26 +26 душно 1014.9 1004.8
21 19.07 Ю 2 2000 м дымка {ливн. осадки} 10/4 600 м
[Cb calv Ac As]
+20.9 +19.3 91 +26 +26 душно 1015.6 1005.5
00 20.07 ЮЗ 1 2000 м дымка {ливн. осадки} 10/4 600 м
[Cb calv Ac As]
+20.7 +20.1 96 +26 +26 душно 1016.0 1005.9
03 20.07 ЮЗ 1 2000 м дымка {ливн. осадки} 10/4 600 м
[Cb calv Ac As]
+21.0 +20.3 96 +27 +27 душно 1017.1 1007.0 +20.3 2
06 20.07 Ю 1 10 км ясно +26.0 +18.4 63 +31 +43 очень
душно
1017.8 1007.8
09 20.07 В 1 10 км 3/3 1000 м
[Cu hum]
+30.0 +15.2 41 +33 +47 душно 1017.3 1007.5
12 20.07 СВ 2 10 км 3/3 1000 м
[Cu hum]
+31.4 +12.6 32 +32 +40 жарко 1016.7 1006.9
15 20.07 В 1 10 км ясно +30.9 +11.2 30 +31 +33 жарко 1016.3 1006.5 +31.9

 

Местоположение метеостанции Дивное (Ставропольский край, Россия): широта 45.92 долгота 43.35 высота над уровнем моря 86 м.

В архиве по умолчанию представлена погода в Дивном за последнюю неделю. Архивные данные за месяц целиком и за предыдущие месяцы, начиная с января 2011 года, Вы можете получить, выбрав интересующий диапазон дат из раскрывающегося списка и нажав кнопку "Ввод!".


*Определитесь, кто Вы:
робот инопланетянин человек

Внимание! Время в таблицах - всемирное. Для получения местного времени необходимо прибавить поправку, которая равна 3 ч.

Смотрите также архив погоды в соседних городах и на ближайших метеорологических станциях:

Погода в Светлограде (Ставропольский край, Россия) (74 км)
Погода в Ремонтном (Ростовская область, Россия) (76 км)
Погода в Арзгире (Ставропольский край, Россия) (88 км)
Погода в Элисте (Калмыкия, Россия) (91 км)
Погода в Благодарном (Ставропольский край, Россия) (92 км)
Погода в Ики-Буруле (Калмыкия, Россия) (100 км)
Погода в Городовиковске (Калмыкия, Россия) (108 км)
Погода в Ставрополе (Ставропольский край, Россия) (133 км)
Погода в Александровском (Ставропольский край, Россия) (136 км)
Погода в Буденновске (Ставропольский край, Россия) (141 км)

Пояснения к столбцам:

Ветер - указаны скорость ветра в м/с - средняя за 10 мин, порывы в срок и между сроками (в фигурных скобках) и направление, откуда дует ветер: С - северный, СВ - северо-восточный, В - восточный, ЮВ - юго-восточный, Ю - южный, ЮЗ - юго-западный, З - западный, СЗ - северо-западный.
Видимость - горизонтальная дальность видимости в метрах или километрах. При видимости от 1 до 10 км при отсутствии осадков обычно наблюдается дымка, при ухудшении видимости до 1 км и менее - туман. В сухую погоду видимость может ухудшаться дымом, пылью или мглою.
Явления - указаны атмосферные явления, наблюдавшиеся в срок или в последний час перед сроком; фигурными скобками обозначены явления, наблюдавшиеся между сроками (за 1-3 часа до срока); квадратными скобками обозначены град или гололедные отложения с указанием их диаметра в мм.
Облачность - указаны через наклонную черту общая и нижняя облачность в баллах и высота нижней границы облаков в метрах; квадратными скобками обозначены формы облаков: Ci - перистые, Cs - перисто-слоистые, Cc - перисто-кучевые, Ac - высококучевые, As - высокослоистые, Sc - слоисто-кучевые, Ns - слоисто-дождевые, Cu - кучевые, Cb - кучево-дождевые. Подробнее классификацию облаков см. в Атласе облаков (PDF).
T - Температура воздуха - температура, измеренная на высоте 2 м над землей.
Td - Температура точки росы - температура, при понижении до которой содержащийся в воздухе водяной пар достигнет насыщения.
f - Относительная влажность воздуха - влажноcть воздуха, измеренная на высоте 2 м над землей.
Te - Эффективная температура - температура, которую ощущает одетый по сезону человек в тени. Характеристика душности погоды. При расчете учитывается влияние влажности воздуха и скорости ветра на теплоощущения человека.
Tes - Эффективная температура на солнце - температура, которую ощущает человек, с поправкой на солнечный нагрев. Характеристика знойности погоды. Зависит от высоты солнца над горизонтом, облачности и скорости ветра. Ночью, в пасмурную погоду, а также при ветре 12 м/с и более поправка равна нулю.
P - Атмосферное давление - приведенное к уровню моря атмосферное давление.
Po - Атмосферное давление - измеренное на уровне метеостанции атмосферное давление.
Tmin - Минимальная температура - минимум температуры воздуха на высоте 2 м над землей.
Tmax - Максимальная температура - максимум температуры воздуха на высоте 2 м над землей.
R - Количество осадков - Количество выпавших осадков за период времени, мм. При наведении курсора мыши на число - период времени, за который выпало указанное количество осадков.
R24 - Количество осадков - Количество выпавших осадков за 24 часа, мм.
S - Снежный покров - Высота снежного покрова, см. При наведении курсора мыши на число - состояние снежного покрова и степень покрытия местности в баллах.